Simultaneous Nadir Overpasses (SNOs) Predictions

Prediction of SNOs between LANDSAT-8 and NOAA-19 Satellite Orbit:

Table of predicted SNOs for the next 14.0 days since TLE Epoch: 3/23/2024
Index Date (LANDSAT-8) Time (LANDSAT-8) Lat,Lon (LANDSAT-8) SZA (LANDSAT-8 ) Date (NOAA-19) Time (NOAA-19) Lat,Lon (NOAA-19) SZA (NOAA-19 ) Distance(km) Time Diff (sec)
1 03/24/2024 09:59:38 80.81, 65.30 80.63 03/24/2024 09:59:59 80.80, 65.31 80.64 0.41 21
2 03/26/2024 16:22:45 80.81, -30.51 79.76 03/26/2024 16:23:03 80.80, -30.53 79.76 0.65 18
3 03/28/2024 22:45:52 80.78,-126.55 78.85 03/28/2024 22:46:07 80.79,-126.48 78.87 1.53 15
4 03/31/2024 05:08:57 80.80, 137.87 78.02 03/31/2024 05:09:10 80.79, 137.83 78.02 1.26 13
5 04/02/2024 11:32:02 80.80, 42.08 77.16 04/02/2024 11:32:13 80.79, 42.02 77.15 1.48 11



Historial Predications of SNOs between LANDSAT-8 and NOAA-19
